Location: Cahas Mountain Overlook
(37.0833°N, 80.1000°W)
Time: 20:03:45
(UTC-04:00)

Explorer 7 - Pass Details

Date: 11 February 2026
Orbit: 430 x 541 km, 50.2° (Epoch: 13 March)

Event Time Altitude Azimuth Distance (km) Brightness Sun altitude
Rises 19:05:59 0° 278° (W) 2,496 11.8 -14.4°
Reaches altitude 10° 19:08:42 10° 300° (WNW) 1,647 10.1 -15.0°
Maximum altitude 19:11:13 17° 342° (NNW) 1,297 8.8 -15.5°
Enters shadow 19:13:35 11° 22° (NNE) 1,645 9.0 -15.9°
Drops below altitude 10° 19:13:48 10° 25° (NNE) 1,699 - -16.0°
Sets 19:16:39 0° 46° (NE) 2,612 - -16.5°
